Home   Weather   Mountain View   Past weeks

Flag for USA Past Weather in Mountain View, California, USA — Yesterday and Last 2 Weeks

Now
72 °F

Sunny.


Feels Like: 77 °F
Forecast: 62 / 90 °F
Wind: No wind

Location: Moffett Field

Current Time: Sep 27, 2016 at 10:16:24 AM

Latest Report: Sep 27, 2016 at 8:56 AM


Visibility: 10 mi

Pressure: 29.93 "Hg

Humidity: 37%

Dew Point: 44 °F

Location of Mountain ViewLocation

Past Weather in Mountain View — Graph

°F

Mountain View Temperature Yesterday

Maximum temperature yesterday: 95 °F (at 3:56 PM)
Minimum temperature yesterday: 63 °F (at 5:56 AM)
Average temperature yesterday: 77 °F

High & Low Weather Summary for the Past Weeks

 TemperatureHumidityPressure
High95 °F (Sep 26, 3:56 PM)87% (Sep 17, 5:56 AM)30.17 "Hg (Sep 17, 5:56 AM)
Low52 °F (Sep 23, 5:56 AM)17% (Sep 26, 3:56 PM)29.85 "Hg (Sep 13, 2:56 AM)
Average68 °F59%30.00 "Hg
* Reported Sep 12 8:56 AM — Sep 27 8:56 AM, Mountain View, Weather by CustomWeather, © 2016

Note: Actual official high and low records may vary slightly from our data, if they occured in-between our weather recording intervals... More about our weather records

Advertising

Mountain View Weather History for the Previous 24 Hours

Scroll right to see more
 ConditionsComfort  
Time TempWeatherWind HumidityBarometerVisibility
8:56 AM
Tue, Sep 27
72 °FSunny.No wind37%29.93 "Hg10 mi
7:56 AM67 °FSunny.No wind41%29.92 "Hg8 mi
6:56 AM64 °FClear.No wind45%29.91 "Hg10 mi
5:56 AM61 °FClear.No wind50%29.91 "Hg10 mi
4:56 AM65 °FClear.No wind45%29.91 "Hg10 mi
3:56 AM65 °FClear.3 mph45%29.91 "Hg10 mi
2:56 AM67 °FClear.3 mph45%29.91 "Hg10 mi
1:56 AM68 °FClear.3 mph45%29.93 "Hg10 mi
12:56 AM67 °FClear.No wind55%29.93 "Hg10 mi
11:56 PM
Mon, Sep 26
71 °FClear.No wind49%29.94 "Hg10 mi
10:56 PM73 °FClear.No wind46%29.95 "Hg10 mi
9:56 PM75 °FClear.No wind43%29.94 "Hg10 mi
8:56 PM77 °FClear.No wind39%29.94 "Hg10 mi
7:56 PM79 °FClear.3 mph36%29.92 "Hg10 mi
6:56 PM81 °FSunny.7 mph35%29.91 "Hg10 mi
5:56 PM89 °FSunny.9 mph22%29.91 "Hg10 mi
4:56 PM92 °FSunny.10 mph21%29.91 "Hg10 mi
3:56 PM95 °FSunny.12 mph17%29.93 "Hg10 mi
2:56 PM91 °FSunny.8 mph20%29.94 "Hg10 mi
1:56 PM92 °FSunny.10 mph19%29.96 "Hg10 mi
12:56 PM88 °FSunny.6 mph26%29.98 "Hg10 mi
11:56 AM86 °FSunny.6 mph30%30.00 "Hg10 mi
10:56 AM82 °FSunny.6 mph37%30.01 "Hg10 mi
Weather by CustomWeather, © 2016

See weather overviewHow to use our weather pages